Flight Track Log - Related Links

Times and Time Zones

All times are in EST time to prevent confusion due to time zone crossing. See the ASQ5817 flight status page for this flight to view local times or setup timezone preferences in your user account.

Time Position Orientation Groundspeed Altitude Reporting Facility
EST Latitude Longitude Course Direction KTS MPH feet Rate Location/Type
Wed 02:59:45 PM 35.8864 -78.7711 327° Northwest 156 180 1,500  Level Washington Center
Wed 03:01:09 PM 35.9606 -78.7331 23° Northeast 210 242 3,900 2,152 Climbing Washington Center
Wed 03:02:00 PM 36.1751 -78.9399 292° West  Level Estimated
Wed 03:02:10 PM 36.0222 -78.7661 337° Northwest 227 261 6,700  Level Washington Center
Wed 03:03:00 PM 36.2742 -78.9910 321° Northwest  Level Estimated
Wed 03:03:10 PM 36.0428 -78.8492 287° West 211 243 9,000  Level Washington Center
Wed 03:04:00 PM 36.3733 -79.0422 321° Northwest  Level Estimated
Wed 03:04:10 PM 36.0422 -78.9469 270° West 229 264 10,500  Level Washington Center
Wed 03:05:00 PM 36.4724 -79.0936 327° Northwest  Level Estimated
Wed 03:05:11 PM 36.0411 -79.0625 269° West 291 335 11,500  Level Washington Center
Wed 03:06:09 PM 36.0672 -79.1689 287° West 330 380 13,400 1,881 Climbing Washington Center
Wed 03:07:09 PM 36.1478 -79.2628 317° Northwest 344 396 15,200 1,488 Climbing Washington Center
Wed 03:08:10 PM 36.2122 -79.3353 318° Northwest 350 403 16,400 1,339 Climbing Washington Center
Wed 03:09:10 PM 36.2969 -79.4319 317° Northwest 360 414 17,900 1,091 Climbing Washington Center
Wed 03:10:11 PM 36.3656 -79.5050 319° Northwest 360 414 18,600 843 Climbing Washington Center
Wed 03:11:11 PM 36.4483 -79.5892 321° Northwest 370 426 19,600 1,068 Climbing Washington Center
Wed 03:12:09 PM 36.5267 -79.6786 317° Northwest 381 438 20,700 1,462 Climbing Washington Center
Wed 03:13:10 PM 36.6258 -79.7667 325° Northwest 387 445 22,500 1,574 Climbing Washington Center
Wed 03:14:11 PM 36.7197 -79.8233 334° Northwest 387 445 23,900 1,462 Climbing Washington Center
Wed 03:15:09 PM 36.8139 -79.8778 335° Northwest 376 433 25,400 1,361 Climbing Washington Center
Wed 03:16:10 PM 36.9119 -79.9353 335° Northwest 376 433 26,600 992 Climbing Washington Center
Wed 03:17:10 PM 36.9997 -79.9869 335° Northwest 376 433 27,400 807 Climbing Washington Center
Wed 03:18:09 PM 37.0997 -80.0447 335° Northwest 382 440 28,200 857 Climbing Washington Center
Wed 03:19:09 PM 37.1975 -80.1078 333° Northwest 387 445 29,100 843 Climbing Washington Center
Wed 03:20:10 PM 37.3017 -80.1689 335° Northwest 399 459 29,900 836 Climbing Washington Center
Wed 03:21:11 PM 37.4036 -80.2272 336° Northwest 399 459 30,800 1,041 Climbing Washington Center
Wed 03:22:11 PM 37.5178 -80.2972 334° Northwest 405 466 32,000 610 Climbing Washington Center
Wed 03:23:09 PM 37.6217 -80.3586 335° Northwest 410 472 32,000  Level Washington Center
Wed 03:24:10 PM 37.7317 -80.4261 334° Northwest 416 479 32,000  Level Washington Center
Wed 03:26:13 PM 37.9481 -80.5475 336° Northwest 433 498 32,000  Level Indianapolis Center
Wed 03:27:15 PM 38.0544 -80.6125 334° Northwest 426 490 32,000  Level Indianapolis Center
Wed 03:28:17 PM 38.1619 -80.6775 335° Northwest 426 490 32,000  Level Indianapolis Center
Wed 03:29:19 PM 38.2911 -80.7564 334° Northwest 428 493 32,000  Level Indianapolis Center
Wed 03:30:21 PM 38.3981 -80.8228 334° Northwest 426 490 32,000  Level Indianapolis Center
Wed 03:31:23 PM 38.5044 -80.8881 334° Northwest 427 491 32,000  Level Indianapolis Center
Wed 03:32:25 PM 38.6111 -80.9533 334° Northwest 426 490 32,000  Level Indianapolis Center
Wed 03:33:27 PM 38.7167 -81.0194 334° Northwest 425 489 32,000  Level Indianapolis Center
Wed 03:34:30 PM 38.8225 -81.0836 335° Northwest 424 488 32,000  Level Indianapolis Center
Wed 03:35:32 PM 38.9511 -81.1642 334° Northwest 433 498 32,000  Level Indianapolis Center
Wed 03:36:34 PM 39.0581 -81.2306 334° Northwest 431 496 32,000  Level Indianapolis Center
Wed 03:37:36 PM 39.1669 -81.2994 334° Northwest 436 502 32,000  Level Indianapolis Center
Wed 03:38:38 PM 39.2756 -81.3667 334° Northwest 435 501 32,000  Level Indianapolis Center
Wed 03:39:40 PM 39.3850 -81.4364 334° Northwest 438 504 32,000  Level Indianapolis Center
Wed 03:40:42 PM 39.5164 -81.5197 334° Northwest 438 504 32,000 -532 Level Indianapolis Center
Wed 03:41:44 PM 39.6253 -81.5889 334° Northwest 436 502 30,900 -1,452 Descending Indianapolis Center
Wed 03:42:46 PM 39.7292 -81.6553 334° Northwest 431 496 29,000 -1,935 Descending Indianapolis Center
Wed 03:43:48 PM 39.8431 -81.7281 334° Northwest 439 505 26,900 -1,935 Descending Indianapolis Center
Wed 03:44:50 PM 39.9478 -81.7958 334° Northwest 439 505 25,000 -2,081 Descending Indianapolis Center
Wed 03:45:52 PM 40.0742 -81.8767 334° Northwest 426 490 22,600 -2,129 Descending Indianapolis Center
Wed 03:46:54 PM 40.1931 -81.8911 355° North 440 506 20,600 -1,935 Descending Indianapolis Center
Wed 03:47:56 PM 40.3189 -81.8503 14° North 459 528 18,600 -1,887 Descending Indianapolis Center
Wed 03:48:58 PM 40.4433 -81.8114 13° North 457 526 16,700 -1,824 Descending Indianapolis Center
Wed 03:50:01 PM 40.5653 -81.7731 13° North 448 516 14,800 -1,811 Descending Indianapolis Center
Wed 03:50:44 PM 40.6625 -81.7408 14° North 434 499 13,500 -1,943 Descending Cleveland Center
Wed 03:51:46 PM 40.7731 -81.7050 14° North 411 473 11,400 -2,044 Descending Cleveland Center
Wed 03:52:15 PM 40.8283 -81.6900 12° North 404 465 10,400 -1,258 Descending Cleveland Center
Wed 03:52:48 PM 40.8828 -81.6703 15° North 405 466 10,100 -571 Descending Cleveland Center
Wed 03:52:57 PM 40.8997 -81.6683 North 398 458 10,000  Descending Cleveland Center
Wed 03:53:51 PM 40.9903 -81.6536 North 390 449 10,100  Climbing Cleveland Center
Wed 03:53:58 PM 41.0053 -81.6628 335° Northwest 369 425 10,000  Descending Cleveland Center
Wed 03:54:53 PM 41.0878 -81.6897 346° North 361 415 10,100  Climbing Cleveland Center
Wed 03:54:59 PM 41.1028 -81.6978 338° Northwest 358 412 10,000 -97 Descending Cleveland Center
Wed 03:55:55 PM 41.1864 -81.7244 347° North 361 415 10,000  Level Cleveland Center
Wed 03:55:59 PM 41.2025 -81.7333 337° Northwest 338 389 10,000 -968 Level Cleveland Center
Wed 03:56:57 PM 41.2683 -81.7469 351° North 296 341 9,000 -1,343 Descending Cleveland Center
Wed 03:57:06 PM 41.2886 -81.7556 342° North 277 319 8,500 -1,759 Descending Cleveland Center
Wed 03:57:55 PM 41.3544 -81.7244 20° North 333 383 7,300 -1,245 Descending Cleveland Center
Wed 03:57:59 PM 41.3489 -81.7261 193° South 311 358 7,400 -364 Climbing Cleveland Center
Wed 03:59:01 PM 41.4192 -81.6600 35° Northeast 303 349 6,900 -769 Descending Cleveland Center
Wed 03:59:56 PM 41.4694 -81.5922 45° Northeast 249 287 5,900 -968 Descending Cleveland Center
Wed 04:00:03 PM 41.4672 -81.5922 180° South 256 295 5,900 -1,164 Level Cleveland Center
Wed 04:01:03 PM 41.5250 -81.5814 North 194 223 4,600 -1,355 Descending Cleveland Center
Wed 04:01:05 PM 41.5286 -81.5817 357° North 223 257 4,500 -667 Descending Cleveland Center
Wed 04:01:57 PM 41.5439 -81.6264 295° West 142 163 4,000 -484 Descending Cleveland Center
Wed 04:02:07 PM 41.5422 -81.6325 250° West 179 206 4,000  Level Cleveland Center
Wed 04:02:58 PM 41.5253 -81.6708 239° Southwest 140 161 4,000 -97 Level Cleveland Center
Wed 04:03:09 PM 41.5203 -81.6778 226° Southwest 156 180 3,900 -600 Descending Cleveland Center
Wed 04:03:58 PM 41.5006 -81.7117 232° Southwest 139 160 3,400 -677 Descending Cleveland Center
Wed 04:04:11 PM 41.4961 -81.7181 227° Southwest 143 165 3,200 -689 Descending Cleveland Center
Wed 04:04:59 PM 41.4781 -81.7500 233° Southwest 132 152 2,700 -581 Descending Cleveland Center
Wed 04:05:13 PM 41.4725 -81.7525 199° South 129 148 2,600 -590 Descending Cleveland Center
Wed 04:06:00 PM 41.4586 -81.7803 236° Southwest 103 119 2,100 -571 Descending Cleveland Center
Wed 04:06:16 PM 41.4547 -81.7833 210° Southwest 109 125 2,000 -600 Descending Cleveland Center
Wed 04:07:00 PM 41.4367 -81.8131 231° Southwest 116 133 1,500 -677 Descending Cleveland Center
Wed 04:07:18 PM 41.4311 -81.8208 226° Southwest 110 127 1,300 -525 Descending Cleveland Center
Wed 04:08:20 PM 41.4125 -81.8503 230° Southwest 118 136 800 -484 Descending Cleveland Center

Login

Don't have an account? Register now (free) for customized features, flight alerts, and more!